FW8756 Weather Reports


Display with metric or nautical units.
time (UTC)temp
F
wind
direction
speed
MPH
gust
MPH
rain 1hr
in
rain 24hr
in
rain mn
in
humidity
%
barometer
mb
20260905004602 87 155 0.0 0.0 0.00 0.00 0.00 72 1011.1
20260905004057 88 148 0.0 0.0 0.00 0.00 0.00 72 1011.0
20260905003553 88 167 0.0 0.0 0.00 0.00 0.00 72 1010.9
20260905003048 88 105 0.0 0.0 0.00 0.00 0.00 71 1010.9
20260905002544 89 196 0.0 0.0 0.00 0.00 0.00 70 1011.0
20260905002043 89 157 0.0 0.0 0.00 0.00 0.00 68 1011.0
20260905001533 89 162 0.0 0.0 0.00 0.00 0.00 67 1010.8
20260905001032 89 158 0.0 0.0 0.00 0.00 0.00 67 1010.6
20260905000528 89 147 0.0 0.0 0.00 0.00 0.00 66 1010.8
20260905000024 90 157 1.0 2.0 0.00 0.00 0.00 66 1010.7
20260904235519 91 177 2.0 2.0 0.00 0.00 0.00 65 1010.9
20260904235019 90 156 1.0 1.0 0.00 0.00 0.00 66 1011.0
20260904234518 91 174 2.0 2.0 0.00 0.00 0.00 65 1010.7
20260904234015 91 186 0.0 0.0 0.00 0.00 0.00 64 1010.9
20260904233510 92 168 0.0 1.0 0.00 0.00 0.00 61 1010.6
20260904233006 92 167 0.0 0.0 0.00 0.00 0.00 62 1010.9
20260904232502 92 153 0.0 0.0 0.00 0.00 0.00 60 1010.7
20260904231958 92 221 2.0 2.0 0.00 0.00 0.00 60 1011.0
20260904231454 91 181 1.0 1.0 0.00 0.00 0.00 61 1011.0
20260904230948 91 153 0.0 0.0 0.00 0.00 0.00 61 1010.8
20260904230447 91 165 2.0 5.0 0.00 0.00 0.00 62 1010.9
20260904225943 92 220 0.0 1.0 0.00 0.00 0.00 61 1010.8
20260904225440 91 139 0.0 0.0 0.00 0.00 0.00 62 1010.8
20260904224935 90 141 0.0 0.0 0.00 0.00 0.00 63 1010.8
20260904224431 91 169 1.0 1.0 0.00 0.00 0.00 62 1011.0
20260904223930 90 160 0.0 0.0 0.00 0.00 0.00 63 1011.1
20260904223429 90 147 0.0 0.0 0.00 0.00 0.00 63 1011.1
20260904222925 89 152 0.0 0.0 0.00 0.00 0.00 63 1011.0
20260904222421 90 147 0.0 0.0 0.00 0.00 0.00 64 1011.2
20260904221920 90 145 1.0 1.0 0.00 0.00 0.00 63 1011.3
20260904221415 92 158 2.0 2.0 0.00 0.00 0.00 62 1011.4
20260904220911 93 187 0.0 0.0 0.00 0.00 0.00 58 1011.3
20260904220410 93 189 0.0 0.0 0.00 0.00 0.00 59 1011.1
20260904215905 93 172 1.0 1.0 0.00 0.00 0.00 60 1011.1
20260904215400 92 154 0.0 0.0 0.00 0.00 0.00 62 1011.1
20260904214856 92 151 2.0 2.0 0.00 0.00 0.00 61 1011.3
20260904214352 92 241 3.0 5.0 0.00 0.00 0.00 61 1011.3
20260904213850 93 164 0.0 1.0 0.00 0.00 0.00 62 1011.3
20260904213345 90 154 0.0 0.0 0.00 0.00 0.00 65 1011.3
20260904212842 92 146 0.0 0.0 0.00 0.00 0.00 64 1011.4
20260904212341 92 168 0.0 0.0 0.00 0.00 0.00 63 1011.4
20260904211837 92 241 3.0 5.0 0.00 0.00 0.00 63 1011.4
20260904211331 92 167 0.0 1.0 0.00 0.00 0.00 64 1011.6
20260904210826 92 202 1.0 2.0 0.00 0.00 0.00 64 1011.6
20260904210320 91 215 0.0 1.0 0.00 0.00 0.00 64 1011.4
20260904205817 91 221 3.0 3.0 0.00 0.00 0.00 66 1012.0
20260904205312 92 183 0.0 0.0 0.00 0.00 0.00 65 1011.7
20260904204809 91 235 1.0 3.0 0.00 0.00 0.00 64 1012.0
20260904204304 90 160 1.0 1.0 0.00 0.00 0.00 65 1011.9
20260904203801 90 225 0.0 0.0 0.00 0.00 0.00 66 1011.8
20260904203256 89 93 0.0 1.0 0.00 0.00 0.00 68 1012.1
20260904202752 90 192 0.0 0.0 0.00 0.00 0.00 67 1012.2
20260904202249 90 198 2.0 3.0 0.00 0.00 0.00 68 1012.1
20260904201744 89 149 0.0 1.0 0.00 0.00 0.00 69 1012.2
20260904201243 90 247 4.0 5.0 0.00 0.00 0.00 69 1012.6
20260904200738 91 220 3.0 3.0 0.00 0.00 0.00 68 1012.3
20260904200233 91 253 4.0 5.0 0.00 0.00 0.00 68 1012.6
20260904195732 88 272 2.0 3.0 0.00 0.00 0.00 70 1012.7
20260904195231 90 165 1.0 1.0 0.00 0.00 0.00 68 1012.3
20260904194726 91 165 1.0 2.0 0.00 0.00 0.00 67 1012.6
20260904194225 90 161 0.0 1.0 0.00 0.00 0.00 68 1012.7
20260904193721 90 185 0.0 1.0 0.00 0.00 0.00 69 1012.9
20260904193217 90 113 1.0 1.0 0.00 0.00 0.00 70 1012.7
20260904192717 92 138 1.0 1.0 0.00 0.00 0.00 66 1012.8
20260904192212 92 219 5.0 7.0 0.00 0.00 0.00 66 1012.8
20260904191709 91 143 2.0 3.0 0.00 0.00 0.00 68 1013.0
20260904191205 88 172 3.0 3.0 0.00 0.00 0.00 71 1012.6
20260904190701 89 137 0.0 1.0 0.00 0.00 0.00 70 1013.0
20260904190156 89 159 0.0 0.0 0.00 0.00 0.00 70 1013.0
20260904185653 91 150 3.0 3.0 0.00 0.00 0.00 70 1012.9
20260904185148 89 232 3.0 5.0 0.00 0.00 0.00 70 1013.1
20260904184646 92 267 6.0 7.0 0.00 0.00 0.00 67 1013.1
20260904184142 92 250 4.0 6.0 0.00 0.00 0.00 65 1013.3
20260904183638 93 215 2.0 3.0 0.00 0.00 0.00 66 1013.3
20260904183137 93 251 6.0 7.0 0.00 0.00 0.00 66 1013.1
20260904182632 94 262 2.0 3.0 0.00 0.00 0.00 65 1013.3
20260904182127 93 148 0.0 1.0 0.00 0.00 0.00 67 1013.5
20260904181624 92 260 4.0 5.0 0.00 0.00 0.00 67 1013.6
20260904181124 90 236 5.0 6.0 0.00 0.00 0.00 69 1013.7
20260904180619 91 263 9.0 11.0 0.00 0.00 0.00 70 1013.8
20260904180115 92 244 6.0 8.0 0.00 0.00 0.00 68 1014.0
20260904175613 91 168 1.0 1.0 0.00 0.00 0.00 69 1013.9
20260904175112 93 237 3.0 5.0 0.00 0.00 0.00 67 1013.9
20260904174607 94 210 3.0 6.0 0.00 0.00 0.00 65 1013.8
20260904174104 94 152 1.0 2.0 0.00 0.00 0.00 65 1013.5
20260904173603 94 161 0.0 0.0 0.00 0.00 0.00 66 1013.7
20260904173059 89 171 1.0 1.0 0.00 0.00 0.00 71 1013.5
20260904172555 91 169 1.0 1.0 0.00 0.00 0.00 70 1013.7
20260904172054 90 147 2.0 2.0 0.00 0.00 0.00 68 1013.7
20260904171549 95 210 6.0 8.0 0.00 0.00 0.00 67 1013.9
20260904171045 94 151 1.0 1.0 0.00 0.00 0.00 66 1013.8
20260904170540 91 156 0.0 0.0 0.00 0.00 0.00 70 1014.0
20260904170036 93 115 1.0 1.0 0.00 0.00 0.00 69 1013.9
20260904165535 92 163 1.0 2.0 0.00 0.00 0.00 70 1014.1
20260904165034 91 254 2.0 3.0 0.00 0.00 0.00 70 1014.3
20260904164530 89 138 1.0 2.0 0.00 0.00 0.00 72 1014.3
20260904164026 91 159 2.0 5.0 0.00 0.00 0.00 70 1014.1
20260904163525 91 168 2.0 3.0 0.00 0.00 0.00 71 1014.1
20260904163020 91 156 0.0 0.0 0.00 0.00 0.00 70 1014.0
20260904162515 91 118 3.0 3.0 0.00 0.00 0.00 71 1013.8
20260904162010 91 156 1.0 1.0 0.00 0.00 0.00 72 1013.9
20260904161505 90 154 0.0 0.0 0.00 0.00 0.00 74 1014.0
20260904161000 92 131 0.0 1.0 0.00 0.00 0.00 70 1014.0
20260904160455 89 32 0.0 1.0 0.00 0.00 0.00 74 1014.1
20260904155950 89 148 2.0 2.0 0.00 0.00 0.00 73 1014.0
20260904155445 90 168 2.0 3.0 0.00 0.00 0.00 72 1014.0
20260904154943 90 222 3.0 5.0 0.00 0.00 0.00 74 1014.0
20260904154438 87 159 2.0 3.0 0.00 0.00 0.00 77 1014.0
20260904153933 88 116 2.0 3.0 0.00 0.00 0.00 76 1013.8
20260904153428 87 162 0.0 1.0 0.00 0.00 0.00 78 1013.9
20260904152925 87 122 0.0 0.0 0.00 0.00 0.00 78 1013.8
20260904152420 88 97 0.0 1.0 0.00 0.00 0.00 77 1013.8
20260904151919 88 151 0.0 1.0 0.00 0.00 0.00 78 1014.1
20260904151414 89 159 4.0 6.0 0.00 0.00 0.00 76 1013.9
20260904150909 87 168 3.0 3.0 0.00 0.00 0.00 79 1013.9
20260904150404 88 179 3.0 3.0 0.00 0.00 0.00 78 1013.9
20260904145902 88 126 2.0 2.0 0.00 0.00 0.00 78 1013.9
20260904145358 87 131 2.0 2.0 0.00 0.00 0.00 80 1013.6
20260904144854 87 142 3.0 5.0 0.00 0.00 0.00 79 1013.7
20260904144350 87 168 2.0 2.0 0.00 0.00 0.00 79 1013.7
20260904143845 86 149 0.0 0.0 0.00 0.00 0.00 81 1013.6
20260904143342 85 163 2.0 2.0 0.00 0.00 0.00 82 1013.8
20260904142837 85 158 1.0 1.0 0.00 0.00 0.00 82 1013.8
20260904142333 85 154 1.0 1.0 0.00 0.00 0.00 83 1013.6
20260904141827 85 152 2.0 2.0 0.00 0.00 0.00 83 1013.7
20260904141323 85 145 4.0 5.0 0.00 0.00 0.00 83 1013.6
20260904140819 85 156 1.0 1.0 0.00 0.00 0.00 83 1013.8
20260904140314 85 157 3.0 3.0 0.00 0.00 0.00 82 1013.6
20260904135813 84 154 0.0 0.0 0.00 0.00 0.00 84 1013.5
20260904135308 84 154 3.0 3.0 0.00 0.00 0.00 85 1013.7
20260904134804 83 124 2.0 2.0 0.00 0.00 0.00 86 1013.6
20260904134303 82 130 3.0 3.0 0.00 0.00 0.00 87 1013.5
20260904133758 82 161 1.0 2.0 0.00 0.00 0.00 88 1013.5
20260904133249 81 140 1.0 2.0 0.00 0.00 0.00 89 1013.5
20260904132748 81 201 1.0 2.0 0.00 0.00 0.00 90 1013.6
20260904132243 81 145 0.0 0.0 0.00 0.00 0.00 91 1013.3
20260904131742 81 150 0.0 0.0 0.00 0.00 0.00 92 1013.2
20260904131239 80 149 0.0 0.0 0.00 0.00 0.00 93 1013.2
20260904130738 80 125 0.0 0.0 0.00 0.00 0.00 93 1013.1
20260904130238 79 153 0.0 0.0 0.00 0.00 0.00 93 1013.1
20260904125734 79 146 0.0 0.0 0.00 0.00 0.00 94 1013.3
20260904125230 79 146 0.0 0.0 0.00 0.00 0.00 94 1013.0
20260904124729 79 143 0.0 0.0 0.00 0.00 0.00 94 1012.9
20260904124226 78 147 0.0 0.0 0.00 0.00 0.00 94 1012.8
20260904123720 78 128 0.0 0.0 0.00 0.00 0.00 94 1013.0
20260904123216 78 128 0.0 0.0 0.00 0.00 0.00 94 1012.8
20260904122716 78 113 0.0 0.0 0.00 0.00 0.00 94 1012.7
20260904122210 78 133 0.0 0.0 0.00 0.00 0.00 94 1012.9
20260904121706 78 145 0.0 0.0 0.00 0.00 0.00 94 1012.5
20260904121201 78 146 0.0 0.0 0.00 0.00 0.00 94 1012.8
20260904120657 78 105 0.0 0.0 0.00 0.00 0.00 94 1012.7
20260904120154 78 124 0.0 0.0 0.00 0.00 0.00 94 1012.5
20260904115649 78 53 0.0 0.0 0.00 0.00 0.00 94 1012.5
20260904115143 78 57 0.0 0.0 0.00 0.00 0.00 94 1012.5
20260904114637 78 55 0.0 0.0 0.00 0.00 0.00 94 1012.6
20260904114137 78 55 0.0 0.0 0.00 0.00 0.00 93 1012.7
20260904113632 78 54 0.0 0.0 0.00 0.00 0.00 93 1012.6
20260904113131 78 55 0.0 0.0 0.00 0.00 0.00 93 1012.8
20260904112627 78 55 0.0 0.0 0.00 0.00 0.00 93 1012.7
20260904112123 78 54 0.0 0.0 0.00 0.00 0.00 93 1012.5
20260904111618 78 59 0.0 1.0 0.00 0.00 0.00 93 1012.8
20260904111114 78 54 0.0 0.0 0.00 0.00 0.00 93 1012.7
20260904110608 78 55 0.0 0.0 0.00 0.00 0.00 93 1012.5
20260904105603 78 131 0.0 0.0 0.00 0.00 0.00 93 1012.1
20260904105058 78 138 0.0 0.0 0.00 0.00 0.00 93 1012.2
20260904104553 78 142 0.0 0.0 0.00 0.00 0.00 93 1012.3
20260904104049 79 143 0.0 0.0 0.00 0.00 0.00 93 1012.3
20260904103544 79 150 0.0 0.0 0.00 0.00 0.00 93 1011.9
20260904103040 78 144 0.0 0.0 0.00 0.00 0.00 93 1012.0
20260904102536 79 144 0.0 0.0 0.00 0.00 0.00 93 1012.2
20260904102031 79 149 0.0 0.0 0.00 0.00 0.00 93 1012.1
20260904101528 79 153 0.0 0.0 0.00 0.00 0.00 93 1012.0
20260904101023 79 145 0.0 0.0 0.00 0.00 0.00 93 1012.1
20260904100519 79 137 0.0 0.0 0.00 0.00 0.00 93 1012.0
20260904100014 79 138 0.0 0.0 0.00 0.00 0.00 93 1011.7
20260904095508 79 145 0.0 0.0 0.00 0.00 0.00 93 1012.0
20260904095003 79 150 0.0 0.0 0.00 0.00 0.00 93 1011.9
20260904094458 79 151 0.0 0.0 0.00 0.00 0.00 93 1012.1
20260904093954 79 144 0.0 0.0 0.00 0.00 0.00 93 1011.8
20260904093450 79 147 0.0 0.0 0.00 0.00 0.00 93 1012.1
20260904092944 79 134 0.0 0.0 0.00 0.00 0.00 92 1011.8
20260904092441 79 143 0.0 0.0 0.00 0.00 0.00 92 1011.9
20260904091936 79 150 0.0 0.0 0.00 0.00 0.00 92 1011.7
20260904091433 79 138 0.0 0.0 0.00 0.00 0.00 92 1011.9
20260904090926 79 143 0.0 0.0 0.00 0.00 0.00 92 1011.8
20260904090423 79 129 0.0 0.0 0.00 0.00 0.00 92 1012.0
20260904085917 80 136 0.0 0.0 0.00 0.00 0.00 92 1011.7
20260904085413 80 128 0.0 0.0 0.00 0.00 0.00 92 1011.8
20260904084907 80 142 0.0 0.0 0.00 0.00 0.00 92 1011.6
20260904084404 80 138 0.0 0.0 0.00 0.00 0.00 92 1011.6
20260904083859 80 140 0.0 0.0 0.00 0.00 0.00 92 1011.5
20260904083355 80 148 0.0 0.0 0.00 0.00 0.00 92 1011.6
20260904082851 80 148 0.0 0.0 0.00 0.00 0.00 92 1011.7
20260904082345 80 137 0.0 0.0 0.00 0.00 0.00 92 1012.0
20260904081840 80 149 0.0 0.0 0.00 0.00 0.00 92 1011.7
20260904081336 80 149 0.0 0.0 0.00 0.00 0.00 92 1011.6
20260904080832 80 127 0.0 0.0 0.00 0.00 0.00 92 1011.7
20260904080327 80 135 0.0 0.0 0.00 0.00 0.00 92 1011.8
20260904075824 80 149 0.0 0.0 0.00 0.00 0.00 92 1011.8
20260904075324 80 175 0.0 0.0 0.00 0.00 0.00 92 1011.8
20260904074822 80 197 0.0 0.0 0.00 0.00 0.00 92 1011.8
20260904074317 79 169 0.0 0.0 0.00 0.00 0.00 92 1011.7
20260904073813 79 150 0.0 0.0 0.00 0.00 0.00 92 1012.0
20260904073309 79 149 0.0 0.0 0.00 0.00 0.00 92 1012.0
20260904072805 79 150 0.0 0.0 0.00 0.00 0.00 92 1012.0
20260904072306 79 149 0.0 0.0 0.00 0.00 0.00 92 1011.9
20260904071759 79 151 0.0 0.0 0.00 0.00 0.00 92 1012.0
20260904071255 79 149 0.0 0.0 0.00 0.00 0.00 92 1012.2
20260904070749 79 150 0.0 0.0 0.00 0.00 0.00 92 1012.2
20260904070248 79 159 0.0 0.0 0.00 0.00 0.00 92 1012.2
20260904065743 79 151 0.0 0.0 0.00 0.00 0.00 92 1012.3
20260904065240 79 154 0.0 0.0 0.00 0.00 0.00 92 1012.3
20260904064739 79 144 0.0 0.0 0.00 0.00 0.00 92 1012.1
20260904064235 79 145 0.0 0.0 0.00 0.00 0.00 92 1012.2
20260904063731 79 128 0.0 0.0 0.00 0.00 0.00 92 1012.3
20260904063227 79 145 0.0 0.0 0.00 0.00 0.00 92 1012.2
20260904062722 79 143 0.0 0.0 0.00 0.00 0.00 92 1012.2
20260904062218 79 145 0.0 0.0 0.00 0.00 0.00 92 1012.2
20260904061713 79 141 0.0 0.0 0.00 0.00 0.00 92 1012.0
20260904061210 79 145 0.0 0.0 0.00 0.00 0.00 92 1011.9
20260904060706 79 157 0.0 0.0 0.00 0.00 0.00 91 1012.3
20260904060202 79 156 0.0 0.0 0.00 0.00 0.00 91 1012.3
20260904055656 79 149 0.0 0.0 0.00 0.00 0.00 91 1012.2
20260904055152 79 151 0.0 0.0 0.00 0.00 0.00 91 1012.5
20260904054647 80 136 0.0 0.0 0.00 0.00 0.00 91 1012.2
20260904054143 80 133 0.0 0.0 0.00 0.00 0.00 91 1012.6
20260904053638 80 141 0.0 0.0 0.00 0.00 0.00 91 1012.2
20260904053132 79 150 0.0 0.0 0.00 0.00 0.00 91 1012.3
20260904052629 79 137 0.0 0.0 0.00 0.00 0.00 91 1012.1
20260904052125 79 135 0.0 0.0 0.00 0.00 0.00 91 1012.1
20260904051620 79 142 0.0 0.0 0.00 0.00 0.00 91 1011.8
20260904051115 79 151 0.0 0.0 0.00 0.00 0.00 91 1012.0
20260904050610 79 145 0.0 0.0 0.00 0.00 0.00 91 1012.0
20260904050107 79 141 0.0 0.0 0.00 0.00 0.00 91 1012.2
20260904045601 79 141 0.0 0.0 0.00 0.00 0.00 91 1012.0
20260904045056 79 140 0.0 0.0 0.00 0.00 0.00 91 1012.1
20260904044552 79 137 0.0 1.0 0.00 0.00 0.00 91 1012.0
20260904044048 80 138 0.0 0.0 0.00 0.00 0.00 91 1012.1
20260904043544 80 145 0.0 0.0 0.00 0.00 0.00 91 1012.0
20260904043040 80 148 0.0 0.0 0.00 0.00 0.00 91 1012.3
20260904042536 80 123 0.0 1.0 0.00 0.00 0.00 90 1012.3
20260904042031 80 149 0.0 0.0 0.00 0.00 0.00 90 1012.1
20260904041527 80 142 0.0 0.0 0.00 0.00 0.00 90 1012.1
20260904041023 80 160 0.0 0.0 0.00 0.00 0.00 90 1012.0
20260904040522 80 144 0.0 0.0 0.00 0.00 0.00 90 1012.0
20260904040020 80 145 0.0 0.0 0.00 0.00 0.00 90 1012.2
20260904035519 80 144 0.0 0.0 0.00 0.00 0.00 90 1012.2
20260904035019 80 153 0.0 0.0 0.00 0.00 0.00 90 1011.9
20260904034514 80 149 0.0 0.0 0.00 0.00 0.00 90 1011.9
20260904034009 80 159 0.0 0.0 0.00 0.00 0.00 90 1012.0
20260904033505 80 154 0.0 0.0 0.00 0.00 0.00 90 1012.0
20260904033002 80 154 1.0 1.0 0.00 0.00 0.00 90 1011.9
20260904032457 80 74 0.0 0.0 0.00 0.00 0.00 90 1012.0
20260904031956 80 78 0.0 0.0 0.00 0.00 0.00 90 1012.1
20260904031451 79 77 0.0 0.0 0.00 0.00 0.00 90 1012.0
20260904030947 79 81 0.0 0.0 0.00 0.00 0.00 90 1012.0
20260904030443 79 76 0.0 0.0 0.00 0.00 0.00 90 1011.9
20260904025937 79 83 0.0 1.0 0.00 0.00 0.00 90 1011.9
20260904025434 79 83 0.0 0.0 0.00 0.00 0.00 90 1012.0
20260904024933 79 77 0.0 0.0 0.00 0.00 0.00 90 1011.6
20260904024429 79 76 0.0 0.0 0.00 0.00 0.00 90 1011.8
20260904023925 79 74 0.0 0.0 0.00 0.00 0.00 89 1011.8
20260904023421 79 68 0.0 0.0 0.00 0.00 0.00 89 1011.7
20260904022920 79 73 0.0 0.0 0.00 0.00 0.00 89 1011.8
20260904022417 79 73 0.0 0.0 0.00 0.00 0.00 89 1011.7
20260904021913 79 74 0.0 0.0 0.00 0.00 0.00 89 1011.8
20260904021409 79 73 0.0 0.0 0.00 0.00 0.00 89 1011.4
20260904020903 79 73 0.0 0.0 0.00 0.00 0.00 89 1011.3
20260904020359 79 72 0.0 0.0 0.00 0.00 0.00 89 1011.3
20260904015857 79 73 0.0 0.0 0.00 0.00 0.00 89 1011.1
20260904015353 79 69 0.0 0.0 0.00 0.00 0.00 88 1011.2
20260904014851 79 69 0.0 0.0 0.00 0.00 0.00 88 1011.2
20260904014346 79 72 0.0 0.0 0.00 0.00 0.00 88 1011.0
20260904013842 79 69 0.0 0.0 0.00 0.00 0.00 88 1011.3
20260904013338 79 69 0.0 0.0 0.00 0.00 0.00 88 1011.0
20260904012834 79 73 0.0 0.0 0.00 0.00 0.00 88 1011.1
20260904012329 79 70 0.0 0.0 0.00 0.00 0.00 88 1010.8
20260904011828 79 68 0.0 0.0 0.00 0.00 0.00 87 1010.8
20260904011323 80 69 0.0 0.0 0.00 0.00 0.00 87 1010.9
20260904010817 80 71 0.0 0.0 0.00 0.00 0.00 87 1010.8
20260904010315 80 68 0.0 0.0 0.00 0.00 0.00 87 1010.9
20260904005809 80 72 1.0 1.0 0.00 0.00 0.00 86 1011.0
20260904005306 80 71 0.0 1.0 0.00 0.00 0.00 86 1010.9